Location: *
(46.1866°S, 178.5290°W)
Time: 13:58:38
(UTC+00:00)

CZ-4B R/B - Pass Details

Date: 19 May 2021
Orbit: 385 x 454 km, 97.6° (Epoch: 21 June)

Event Time Altitude Azimuth Distance (km) Brightness Sun altitude
Rises 05:51:56 0° 359° (N) 2,283 5.2 -14.4°
Reaches altitude 10° 05:53:57 10° 351° (N) 1,442 4.3 -14.7°
Maximum altitude 05:56:52 40° 279° (W) 618 2.7 -15.2°
Drops below altitude 10° 05:59:53 10° 207° (SSW) 1,490 4.2 -15.7°
Sets 06:01:59 0° 199° (SSW) 2,373 5.2 -16.1°
